RH
45 38 27 26 29 31 28 24 21 18 17 16 11 15 15 14 14 14 9 12 13 11 12 12 12 6 5 5 4 4 6 10 9 12 14 20 26 25 20 24 22 21 20 19 19
48 40 30 25 27 30 29 25 21 19 17 16 11 14 16 16 18 11 10 11 9 11 12 10 6 4 5 5 5 6 9 11 8 11 11 16 21 21 20 21 22 20 18 17 18
50 42 34 26 24 29 29 26 22 19 16 16 13 14 16 17 16 9 9 8 8 9 12 9 6 5 6 6 7 8 11 9 9 12 13 19 20 17 20 24 21 21 18 16 17
48 45 37 28 24 25 29 26 22 20 16 16 14 15 16 18 19 10 8 8 7 7 10 6 6 6 6 8 7 11 8 9 16 15 18 20 18 19 19 20 16 16 16 17 18
50 47 39 30 24 22 26 26 22 19 15 16 15 16 18 16 13 9 9 7 6 6 7 7 7 6 7 8 11 15 13 16 16 16 17 17 19 20 20 17 16 16 17 17 17
52 47 42 32 24 21 22 24 21 19 15 16 14 17 22 21 10 8 8 7 6 7 8 8 8 8 8 9 10 13 17 18 18 18 18 20 20 19 19 16 16 16 16 15 16
53 50 43 35 25 21 20 21 19 18 14 16 15 19 18 13 9 8 7 7 7 8 8 10 9 10 9 10 8 11 17 17 19 18 19 18 23 23 18 16 17 16 16 17 19
53 53 44 37 26 21 20 19 17 16 14 16 14 21 19 10 9 8 8 7 8 8 9 10 10 10 11 8 9 12 13 18 14 17 17 14 30 21 17 17 17 16 16 18 19
52 54 46 37 28 22 19 17 15 13 15 15 16 18 14 9 8 8 8 8 8 8 10 10 11 11 10 11 13 12 14 17 16 12 13 14 27 21 16 16 17 16 18 18 19
54 54 48 37 28 25 19 15 12 14 14 16 12 12 10 8 8 8 8 9 8 9 10 11 10 14 12 12 14 14 12 12 17 13 11 14 24 21 17 17 16 17 19 20 20
58 53 48 37 28 26 18 22 14 18 15 11 9 9 8 7 8 8 8 9 9 10 12 11 13 14 12 10 8 8 8 16 16 15 15 18 22 21 16 16 18 18 20 21 21
59 55 48 36 30 25 21 22 24 29 18 11 9 8 8 8 9 8 9 10 11 12 10 11 14 10 8 8 8 9 10 15 14 15 17 18 21 18 15 16 17 19 21 22 22
60 57 47 35 31 23 26 20 27 34 26 9 7 8 7 7 9 8 8 9 10 11 11 13 12 9 8 8 8 8 8 12 12 16 14 16 17 17 15 17 19 20 22 21 23
61 58 46 36 26 23 23 26 27 42 27 13 10 8 8 7 9 6 8 10 10 10 12 13 10 10 9 9 10 11 7 6 6 15 17 15 19 19 19 21 21 22 24 23 23
61 60 43 35 40 31 26 30 37 42 30 10 8 8 8 10 7 6 7 9 11 12 12 16 13 12 12 12 10 13 10 8 7 10 14 14 17 13 19 22 22 24 24 23 24
61 60 41 31 30 38 31 35 38 30 35 12 10 10 11 9 8 5 6 8 8 10 11 13 8 9 11 10 10 9 10 10 10 11 16 13 13 22 21 20 20 24 23 23 24
63 58 39 34 33 31 42 38 23 31 13 14 12 10 9 10 8 7 8 9 11 15 14 10 9 9 8 9 10 10 12 16 18 17 16 8 10 28 25 21 22 25 23 24 24
66 51 36 30 42 43 51 29 24 11 14 10 10 10 11 9 10 9 10 9 7 9 10 13 18 10 10 12 13 11 9 14 16 14 12 8 10 28 26 24 22 22 23 24 26
65 40 54 43 52 56 47 39 25 11 9 11 11 12 12 10 11 11 11 9 9 10 12 9 14 9 9 8 8 12 10 11 12 11 14 11 29 27 25 26 23 23 24 27 28
49 54 45 49 52 57 53 32 17 15 9 10 14 11 14 12 13 14 13 8 10 9 11 10 15 8 10 7 7 8 9 11 14 22 19 12 16 31 29 27 25 26 28 30 30
44 47 56 40 68 45 47 25 12 13 10 11 12 12 12 12 12 14 13 10 10 8 9 10 12 14 8 9 11 11 10 12 13 13 14 21 22 22 26 22 26 27 30 34 38
50 48 64 55 41 31 36 20 15 14 10 11 13 11 13 12 13 14 16 13 9 9 16 18 17 18 12 12 9 8 10 10 16 17 19 24 26 26 27 27 25 26 30 36 43
48 42 44 62 42 35 25 17 14 14 12 12 14 12 11 13 18 18 24 15 13 14 22 12 18 20 15 15 14 10 11 10 12 15 21 31 27 26 26 26 27 29 31 34 40
49 57 37 44 41 35 30 20 19 12 11 11 14 14 15 20 18 24 25 21 17 21 30 20 17 20 23 17 11 16 12 9 12 21 19 19 20 33 30 28 30 29 32 33 40
50 49 34 42 37 41 27 23 20 19 14 14 17 16 20 24 24 26 25 24 20 31 18 22 27 21 18 15 12 12 11 10 10 10 16 14 12 11 23 28 30 31 32 34 39
61 46 43 40 37 39 37 27 21 17 18 18 20 17 19 24 22 27 25 24 24 21 22 20 28 25 27 19 15 17 16 14 12 10 10 10 12 23 26 28 30 30 32 34 40
37 53 58 51 38 39 36 26 21 23 30 17 18 21 30 32 29 28 25 24 26 24 27 31 29 34 37 19 21 35 23 17 13 12 10 14 26 24 25 24 25 26 32 38 43
Wind_Speed
9 13 14 14 14 16 16 17 18 19 20 21 18 12 8 9 11 11 5 9 12 17 20 21 20 15 16 5 8 11 11 13 14 17 16 18 20 20 22 24 26 25 21 21 21
11 10 15 15 15 16 16 17 18 19 20 20 17 13 11 12 19 2 6 10 13 13 17 20 14 12 8 3 3 10 6 12 11 14 8 19 20 20 21 21 21 19 22 23 21
14 11 12 17 16 16 16 17 18 19 20 19 17 14 13 14 14 9 7 10 11 14 18 22 11 12 3 6 8 9 13 11 14 16 17 19 18 18 19 19 18 18 17 20 21
14 13 12 14 17 17 17 17 18 18 19 17 15 13 12 9 4 6 9 13 14 17 18 9 9 10 4 9 11 12 13 15 19 16 19 18 20 21 19 18 17 17 18 19 18
13 15 14 13 16 18 18 18 18 18 18 16 14 13 7 8 3 6 11 12 14 14 10 8 8 5 1 14 14 13 14 19 19 20 19 19 19 20 18 16 17 18 17 15 18
15 14 15 15 14 18 19 19 18 18 18 15 13 12 6 12 4 5 9 9 10 13 6 11 7 10 3 15 8 14 16 17 16 19 21 21 15 14 15 14 14 15 17 17 19
15 15 16 16 15 17 20 19 19 18 17 13 11 10 10 6 2 6 9 6 8 8 8 6 5 7 3 10 18 15 16 13 15 14 15 19 15 12 13 12 13 15 14 15 20
16 16 15 16 17 16 20 20 19 18 15 11 10 6 6 1 4 6 9 9 5 5 4 4 9 5 2 15 11 14 13 10 9 16 14 3 13 12 12 11 11 13 12 14 17
17 16 15 17 17 17 19 21 18 16 13 9 8 8 7 2 4 6 8 8 5 2 1 4 10 5 8 15 11 12 9 15 10 2 9 13 15 13 11 9 10 9 10 11 12
17 17 15 15 16 17 19 20 14 15 9 7 14 7 4 1 3 6 4 5 4 3 7 9 6 10 12 5 5 2 1 6 10 8 6 6 13 12 10 9 8 9 9 10 10
18 17 15 14 16 15 19 11 6 5 12 6 4 4 2 2 5 1 1 5 5 7 11 6 7 9 11 8 7 6 4 13 8 4 3 3 10 12 10 9 8 8 8 9 9
19 16 15 13 15 15 13 7 6 5 5 7 4 1 2 3 3 3 8 7 4 8 2 5 9 7 6 5 5 5 4 9 5 6 4 8 11 12 11 9 8 8 8 8 8
20 16 14 12 13 15 11 12 7 9 6 7 6 5 3 8 2 3 10 4 5 5 3 12 9 3 1 3 2 4 6 3 3 6 8 9 12 14 11 10 8 7 7 8 8
20 16 13 10 10 14 13 5 4 5 5 11 8 5 6 4 4 3 4 4 2 5 9 7 4 1 2 6 6 1 5 4 5 4 5 14 7 18 16 12 11 9 7 6 7
20 16 13 11 12 9 2 2 1 2 5 17 13 7 6 6 9 3 1 6 2 4 4 7 6 3 2 5 5 4 4 4 7 9 11 13 7 8 19 15 13 10 8 6 8
20 16 12 11 14 9 1 3 2 4 7 9 8 10 12 7 4 5 3 3 3 4 8 7 5 5 5 2 1 1 5 8 8 9 10 17 12 11 15 16 15 12 8 6 8
19 16 16 10 7 8 5 5 5 8 11 10 9 16 13 11 7 9 9 8 5 9 9 7 5 5 1 4 7 5 7 5 7 7 7 5 6 11 11 14 15 11 8 7 7
18 15 17 18 8 5 8 7 11 14 16 11 16 17 11 14 7 8 9 5 1 7 4 9 6 1 2 4 6 6 4 4 4 7 8 3 2 8 13 13 12 10 8 7 7
15 15 10 14 11 6 7 11 9 10 19 13 16 17 10 13 6 10 8 5 4 6 4 2 6 6 5 3 4 4 2 4 5 11 8 7 10 9 11 10 8 8 8 6 6
13 10 12 15 11 8 7 13 12 6 11 17 14 17 14 15 11 10 8 4 4 2 4 3 3 0 5 2 5 6 5 3 4 3 5 7 3 6 11 11 9 7 6 6 5
12 4 8 12 9 5 11 16 18 3 9 16 18 17 13 15 12 13 9 6 2 3 3 2 1 5 1 6 4 5 4 4 3 5 4 5 3 3 10 9 8 7 5 5 8
9 7 9 16 7 7 11 20 17 9 6 5 7 12 12 14 12 5 7 5 2 4 3 4 2 3 4 5 4 4 7 6 3 5 5 6 4 6 9 10 6 6 6 6 9
5 5 5 3 8 11 14 20 13 11 11 6 6 6 12 9 6 11 7 3 3 2 3 2 2 2 5 4 3 4 5 5 7 4 7 5 1 8 10 10 8 6 5 7 7
3 4 4 2 6 7 17 17 10 14 15 10 6 4 10 10 7 11 7 3 1 7 4 3 2 4 6 7 2 5 6 7 8 5 9 9 4 12 11 9 11 7 5 6 7
3 4 5 9 12 13 18 13 14 7 5 7 5 12 13 8 12 9 10 10 4 2 2 2 2 4 7 9 8 9 12 13 14 14 12 12 14 12 4 9 8 8 6 5 4
4 3 3 9 16 12 11 15 18 14 13 16 10 13 11 10 4 13 13 6 5 5 5 2 1 4 8 11 11 10 14 15 17 16 15 13 12 12 12 12 9 7 4 3 5
8 3 2 6 15 11 10 12 16 10 1 8 9 10 15 13 15 14 8 6 11 8 8 5 2 1 3 3 8 10 9 8 10 11 7 6 6 6 5 4 4 2 6 4 5
Wind_Direction
319 324 325 329 335 338 342 344 344 345 346 345 342 334 287 288 299 285 16 329 323 330 322 298 277 260 263 255 255 274 270 35 51 78 101 103 91 79 76 78 74 78 85 84 80
307 318 322 324 328 332 336 339 340 341 343 344 342 331 289 297 307 288 349 330 332 332 321 325 342 317 258 259 317 304 18 61 50 90 92 101 99 106 93 89 87 86 77 72 70
301 308 319 321 322 326 330 333 334 336 340 343 341 326 284 302 296 72 12 348 342 327 295 291 286 284 289 48 349 29 76 93 63 91 83 79 98 93 93 86 86 86 79 68 64
293 300 309 317 319 321 325 326 329 332 336 337 334 321 288 299 330 54 2 345 333 320 295 302 279 253 345 63 69 75 74 94 73 98 83 84 83 87 89 91 88 84 80 75 69
283 293 301 311 317 318 319 321 323 327 331 331 327 318 303 234 262 22 349 334 330 323 342 327 322 319 180 88 83 87 83 86 99 104 110 106 102 103 98 99 98 90 79 67 58
278 286 296 304 313 315 314 315 318 322 323 323 320 310 250 268 12 360 333 328 344 327 13 359 354 358 57 152 105 118 107 102 102 104 113 118 120 114 113 107 96 84 74 64 57
272 281 291 299 307 312 311 311 312 314 313 313 313 318 282 289 328 337 326 320 338 337 341 1 315 307 110 91 121 121 120 121 126 129 116 115 115 116 126 123 114 93 79 66 54
267 276 285 296 302 308 310 308 305 307 303 301 297 291 268 334 329 306 335 319 339 318 317 334 321 80 48 122 140 167 164 143 164 147 185 300 128 142 140 135 108 93 84 74 62
260 269 279 291 299 306 309 305 300 297 289 288 286 222 288 161 242 329 317 311 313 266 304 273 241 130 149 176 178 213 248 126 123 210 190 222 132 153 153 130 115 95 87 73 59
253 264 274 287 298 308 309 303 293 288 255 253 261 267 207 217 16 290 315 281 275 199 208 235 211 196 205 242 360 354 235 129 68 25 222 122 108 154 152 145 116 102 85 63 54
248 258 270 283 295 309 320 323 236 214 235 290 289 247 151 152 241 74 314 250 221 234 246 219 250 45 50 19 340 339 348 95 107 38 44 86 135 169 161 143 149 131 82 63 39
245 252 265 280 292 298 300 267 44 341 250 232 273 355 341 307 210 55 318 247 222 243 267 215 74 56 53 28 358 15 41 95 97 140 256 162 175 163 164 184 132 115 84 57 34
241 245 259 278 292 286 246 273 340 342 256 188 216 201 166 252 8 27 321 250 225 200 145 55 93 83 292 113 355 61 15 54 342 148 259 180 188 172 175 120 114 107 85 63 39
236 237 250 270 285 248 237 232 315 337 267 176 205 187 188 182 168 304 346 324 266 114 85 80 89 136 158 95 342 340 35 345 294 247 276 184 297 174 168 168 177 143 91 58 38
230 231 238 239 306 255 111 183 263 289 243 156 153 122 158 211 131 128 319 253 212 147 245 114 150 153 222 52 349 80 325 305 281 251 271 247 241 236 158 183 184 137 103 70 54
224 226 232 247 253 274 242 144 146 224 239 157 139 181 173 179 183 128 163 332 1 141 64 103 76 32 48 118 26 339 266 235 247 252 251 242 236 163 178 195 161 120 105 73 55
218 223 223 262 257 220 197 183 187 228 152 166 177 169 175 168 161 173 165 176 223 175 167 166 122 119 334 244 179 221 263 287 228 201 266 98 181 81 68 71 119 118 98 80 63
213 223 230 227 270 242 227 195 224 206 210 142 160 176 168 158 158 161 159 159 25 298 209 189 169 72 81 19 348 311 328 301 312 337 339 114 241 122 101 94 100 106 105 73 60
202 225 232 234 224 218 236 198 210 234 211 159 161 178 170 161 163 185 207 96 47 2 332 262 107 113 75 1 339 35 260 10 299 276 256 256 91 91 127 123 130 116 95 67 49
174 194 236 208 196 201 227 220 212 271 194 165 179 187 168 185 184 179 166 127 135 11 335 52 142 295 95 256 213 250 1 283 197 277 309 312 94 108 174 161 148 140 90 70 53
194 206 160 183 162 200 219 211 215 278 328 177 200 195 180 177 185 189 161 128 176 117 15 46 302 130 177 207 23 185 218 206 317 290 294 317 74 101 174 159 140 108 90 69 65
203 207 168 158 190 207 216 216 230 191 250 245 286 188 195 167 185 129 137 105 104 154 79 47 357 246 99 79 352 295 289 293 278 297 327 309 282 92 104 113 116 111 114 105 88
192 180 155 176 199 198 219 219 221 190 213 194 209 225 146 168 135 111 102 72 94 88 64 154 197 229 185 178 160 245 209 236 271 311 267 276 315 146 141 148 138 126 115 122 118
241 156 133 202 273 225 207 204 192 189 194 203 179 205 159 128 135 134 127 129 94 76 356 335 268 274 293 340 18 257 243 257 250 269 279 280 300 171 190 193 157 152 134 108 97
237 176 168 181 231 246 201 165 177 169 155 181 173 184 158 147 136 136 115 128 130 105 121 331 264 271 287 303 294 277 279 278 270 267 259 275 286 308 99 172 114 112 121 134 108
216 165 172 180 211 231 189 187 184 184 167 195 191 186 153 162 152 157 144 158 159 163 157 147 266 322 283 271 259 274 273 271 270 272 273 284 292 67 86 103 126 134 143 129 114
216 290 283 160 193 212 187 197 183 141 325 197 186 150 92 77 68 67 62 85 121 151 178 154 241 284 279 359 332 286 268 278 295 261 281 273 85 115 112 115 121 132 136 120 106